Theta_e
312 312 313 313 313 313 312 312 312 311 311 311 311 311 311 311 312 312 312 313 313 313 313 312 311 310 309 315 316 316 317 316 317 316 315 316 318 320 322 322 321 319 319 320 320 318 317
313 311 310 310 311 312 312 312 312 312 312 312 312 312 312 312 311 312 312 312 312 312 313 312 311 310 310 315 314 315 315 315 316 316 315 314 317 319 319 319 319 319 318 318 318 318 318
315 315 314 312 311 309 309 309 310 311 312 312 312 312 312 312 312 312 313 313 313 313 313 313 311 310 311 314 314 314 313 315 315 314 314 315 315 315 319 320 318 317 315 316 317 318 317
317 316 315 314 313 313 312 311 310 309 308 308 309 311 312 313 313 313 314 314 314 314 314 314 312 310 312 314 314 314 313 314 315 314 314 314 314 315 317 317 317 316 317 317 319 317 316
319 318 317 316 315 314 314 313 312 312 311 310 309 308 307 308 310 313 314 315 315 314 313 313 311 311 315 315 315 314 313 314 315 314 313 313 314 317 317 316 316 316 317 318 319 318 315
319 319 319 319 318 317 315 314 314 314 313 312 311 310 309 308 307 307 308 309 312 312 311 310 311 315 314 315 314 314 314 315 314 313 313 313 315 316 315 315 316 318 318 317 316 317 315
322 321 321 320 319 320 319 317 315 315 315 314 313 312 312 311 310 309 308 307 309 314 311 314 316 315 316 315 314 314 315 315 313 313 315 315 314 315 315 316 317 317 316 316 317 316 315
323 323 323 322 321 320 320 321 318 316 315 316 316 315 314 313 312 311 309 308 311 309 308 309 311 312 315 314 313 313 313 313 313 314 314 315 315 315 315 315 315 315 314 315 315 316 314
326 326 327 327 324 322 322 321 321 319 318 318 317 317 317 318 316 312 310 309 307 306 311 309 309 310 310 310 312 312 313 313 313 314 315 315 316 315 315 315 316 315 314 314 315 315 312
327 327 327 327 327 327 326 322 321 322 321 319 320 320 320 321 316 311 312 309 307 307 311 312 312 312 311 311 309 311 313 313 313 314 314 314 315 315 314 314 314 314 315 315 315 315 315
323 326 326 327 327 328 328 327 323 322 321 322 321 321 321 322 320 316 312 307 309 308 315 315 309 310 312 310 308 308 310 310 311 312 313 314 313 313 314 314 314 315 312 313 314 314 314
320 321 322 323 324 325 326 326 326 327 324 321 322 322 321 320 320 319 313 308 310 311 313 313 311 311 312 311 309 307 307 307 308 310 310 311 310 311 313 310 311 310 312 312 312 311 313
321 321 321 321 322 323 323 323 324 325 325 324 321 323 320 319 318 319 316 309 312 311 314 315 313 312 312 313 312 308 308 307 309 310 311 312 311 310 310 312 309 310 313 313 315 314 316
316 317 317 318 318 319 319 320 322 323 324 324 323 323 321 321 319 318 312 313 314 318 315 313 312 313 313 313 313 311 311 310 308 310 312 313 313 311 308 311 314 310 313 315 314 313 314
311 312 313 314 315 316 317 319 319 319 320 321 323 321 320 321 319 317 309 312 319 322 320 319 317 313 313 312 313 313 311 312 312 310 312 312 313 308 308 311 312 312 312 314 314 307 313
308 308 308 308 310 312 314 315 317 318 318 319 319 319 319 319 319 314 308 312 315 320 320 317 317 314 314 314 312 312 312 313 313 311 311 312 313 311 306 306 307 309 309 312 313 311 310
302 303 304 305 305 306 308 310 311 313 315 317 318 317 318 318 316 310 310 310 315 317 318 319 321 317 314 312 313 313 312 312 313 313 311 312 312 311 306 306 309 306 308 309 310 314 312
297 298 298 299 299 300 301 302 305 308 309 311 314 316 316 316 311 309 311 312 314 315 317 315 312 313 313 313 313 314 314 314 310 312 312 311 313 313 311 310 307 309 309 310 311 311 309
296 296 295 296 296 296 296 298 300 301 303 308 312 315 313 315 316 313 311 313 313 315 315 316 318 315 316 316 316 313 313 311 312 311 310 310 311 314 311 311 307 307 308 309 310 310 312
295 295 296 296 296 295 295 294 297 299 301 303 310 313 308 309 312 313 315 313 313 313 314 314 315 315 315 315 313 315 314 313 313 311 312 312 312 313 314 313 311 310 308 307 309 311 311
295 295 295 295 295 295 295 295 295 295 298 300 304 309 310 310 309 311 312 312 314 314 314 315 315 315 316 316 315 315 313 312 311 311 310 312 312 310 311 312 311 311 311 310 310 309 309
294 294 294 294 294 294 294 295 293 294 295 297 302 306 307 309 310 311 310 311 312 313 313 314 315 314 314 315 315 316 313 314 315 311 312 311 314 310 311 310 310 310 310 310 310 310 311
294 294 294 294 294 294 294 294 294 293 294 296 299 301 301 302 306 308 309 309 310 310 310 311 313 313 314 314 313 313 314 314 313 314 311 309 310 312 314 311 311 312 311 312 312 312 311
293 293 293 294 294 294 293 294 294 293 293 295 296 297 298 299 301 302 305 305 304 305 305 304 303 306 309 309 309 309 312 311 312 312 313 313 311 312 314 313 314 311 311 310 311 312 312
294 294 293 293 293 294 293 293 293 293 293 294 295 296 295 296 298 298 299 299 299 299 301 302 302 303 304 305 307 310 311 312 312 311 311 312 313 314 314 315 313 312 312 311 311 312 311
293 294 294 294 293 293 293 293 293 293 292 293 293 293 294 296 295 295 296 296 297 296 297 299 301 300 300 305 307 309 311 310 313 310 309 311 312 314 315 316 316 313 311 310 310 312 310
292 293 292 293 293 293 293 293 293 293 293 292 293 293 293 294 294 294 294 294 295 296 297 297 295 296 298 302 304 307 309 309 311 312 312 310 311 313 314 315 314 312 310 309 311 312 310
292 292 292 292 292 292 292 293 293 293 292 292 292 293 293 294 294 293 293 293 293 293 295 295 293 294 296 297 298 300 304 304 304 305 308 310 310 311 311 312 312 307 308 311 308 307 305
292 292 292 292 292 292 292 293 293 292 293 292 292 292 292 293 293 293 293 293 293 293 293 294 293 293 294 294 295 297 295 296 298 299 301 302 299 298 300 304 303 303 299 297 302 300 300
Wind_Speed
16 17 17 17 17 17 17 16 16 15 16 16 17 17 17 17 17 16 16 16 16 16 16 16 15 14 12 7 13 17 14 12 15 13 9 5 8 12 7 8 2 9 12 17 14 12 13
15 16 16 18 19 19 19 19 20 19 18 18 19 19 18 18 18 18 18 18 18 17 17 16 16 15 12 10 14 15 14 15 17 15 12 10 7 8 9 11 8 8 13 19 16 18 13
12 13 14 16 17 18 18 19 20 21 22 22 22 21 21 20 20 20 19 19 20 20 19 18 18 15 14 21 20 19 16 17 18 17 14 14 14 8 7 8 7 7 8 10 17 19 7
8 9 11 13 14 16 18 19 19 20 21 23 24 25 25 24 23 23 22 21 22 22 21 20 18 13 12 17 20 20 18 17 17 18 18 18 12 11 6 6 6 4 5 5 5 12 9
8 9 9 10 11 13 15 18 19 20 21 22 23 24 25 27 27 29 27 24 25 25 23 21 15 9 9 13 15 17 16 15 15 16 15 13 9 6 4 3 6 9 6 9 10 13 7
10 11 11 12 12 12 13 15 17 18 20 22 23 24 24 24 25 28 29 27 26 26 23 13 12 5 18 12 11 11 13 16 10 8 6 8 7 4 4 6 7 7 6 10 13 7 7
14 14 13 13 14 15 15 16 16 17 19 20 20 22 24 24 24 25 25 21 12 7 11 12 7 9 6 10 8 10 11 14 11 7 7 11 5 11 15 16 16 15 16 16 22 11 10
17 18 17 17 16 16 16 17 18 18 19 20 21 20 20 21 20 19 18 6 8 8 13 21 25 25 25 24 11 17 15 14 11 9 9 4 13 21 9 12 7 9 13 20 18 11 7
21 21 20 20 19 19 19 19 19 19 19 19 19 18 18 18 18 14 13 13 11 12 8 11 27 21 25 28 17 24 25 16 9 8 13 19 10 14 7 7 9 12 10 15 15 9 6
18 20 24 23 22 22 23 22 21 20 20 20 18 19 20 18 9 13 11 9 6 5 4 7 8 9 15 12 6 14 21 11 7 13 13 16 20 20 15 18 10 21 9 9 11 6 6
24 20 20 20 23 23 23 24 24 22 22 21 20 17 20 20 17 11 11 8 3 1 7 1 3 2 6 6 1 1 14 8 9 5 5 8 4 6 9 11 9 6 2 2 4 6 6
25 28 32 32 28 25 25 21 22 25 26 22 20 20 21 20 18 14 13 4 3 3 9 3 5 4 3 5 1 2 2 5 2 3 7 14 4 3 4 3 2 3 1 3 3 2 9
20 23 24 24 24 25 28 30 27 25 23 25 26 23 25 22 13 13 11 4 3 8 3 6 6 6 5 6 7 8 6 6 6 4 8 6 16 2 4 4 2 4 3 3 4 1 15
20 22 23 24 24 24 25 25 25 27 27 24 17 26 33 29 27 18 5 2 10 8 18 2 4 7 7 9 8 8 5 5 13 6 3 3 9 14 8 12 8 9 9 6 7 10 21
22 24 26 26 25 26 24 24 24 25 24 23 24 21 27 31 30 25 13 4 10 6 8 12 15 6 7 7 6 8 9 9 8 19 11 7 12 3 6 3 9 6 6 4 1 2 4
28 28 27 27 26 26 28 26 24 21 21 23 21 19 27 22 21 28 4 11 12 9 10 7 14 8 15 13 10 9 9 5 6 13 13 5 11 8 4 3 3 4 1 2 2 2 7
25 28 28 29 29 28 29 26 25 25 23 17 15 8 12 13 22 14 5 11 14 21 24 12 15 17 19 16 15 11 10 10 5 5 15 3 5 8 6 8 11 2 4 5 1 5 7
14 12 18 20 20 23 22 22 26 28 26 19 12 4 10 15 9 7 9 8 18 22 23 6 2 9 14 10 15 25 25 19 27 2 9 8 2 5 15 8 2 6 11 12 10 16 4
8 10 10 10 11 12 14 16 16 13 13 9 7 10 11 24 8 8 5 19 22 19 17 6 11 12 15 16 9 12 15 16 14 6 5 10 3 2 8 14 2 5 6 11 11 11 19
11 10 9 10 10 12 14 11 11 11 9 9 6 4 7 22 17 9 14 11 17 24 22 27 19 17 14 17 18 10 12 13 26 10 16 3 3 10 14 16 15 12 11 11 13 11 20
14 12 12 12 12 12 11 11 11 12 12 7 9 7 9 4 8 16 14 6 18 20 27 23 8 26 23 16 20 22 21 27 19 21 4 6 11 19 24 25 25 23 24 25 23 19 21
16 15 16 17 15 13 14 13 12 11 9 14 6 4 5 7 18 14 16 18 28 27 23 21 27 23 20 24 26 28 20 19 20 3 12 10 10 13 24 31 32 29 29 25 32 30 31
17 16 16 16 15 15 14 13 12 8 10 7 11 12 5 11 11 8 13 15 7 13 21 31 28 26 25 26 30 39 40 36 22 10 7 7 7 8 19 23 27 24 33 38 34 31 30
16 17 17 16 17 16 17 17 16 12 11 14 12 8 5 10 9 13 14 7 9 10 8 11 19 17 14 30 37 30 33 24 24 22 21 17 19 14 18 16 23 17 22 31 36 35 33
20 19 17 18 18 18 18 18 19 16 15 16 15 13 6 6 11 18 17 16 22 25 19 20 28 22 19 21 9 15 7 8 20 27 26 23 22 15 14 19 24 4 23 25 20 33 34
24 23 23 22 21 19 19 19 19 18 18 18 20 18 14 6 9 15 10 12 10 11 15 21 15 21 17 4 6 12 15 15 7 5 17 26 25 20 19 22 25 17 21 26 28 22 13
25 24 24 24 24 24 23 21 20 21 20 19 25 23 19 14 25 18 10 7 9 13 11 11 7 10 9 5 12 16 18 8 10 12 8 7 14 24 23 20 13 5 16 14 15 22 21
27 26 25 23 26 25 24 23 21 20 23 23 27 26 27 19 30 22 26 22 17 17 9 5 10 6 4 9 10 15 14 7 8 13 16 8 8 8 14 20 29 16 10 15 14 23 29
29 28 27 27 24 24 23 24 24 22 23 23 29 26 26 28 20 8 14 25 23 24 24 14 7 6 5 4 5 5 7 7 8 6 1 6 2 4 6 6 10 14 15 33 23 23 24
Wind_Direction
263 263 264 266 268 273 275 276 278 281 285 289 292 296 300 304 306 308 311 315 316 318 321 323 324 327 321 289 258 277 280 242 229 231 234 234 254 250 258 298 254 237 263 277 270 254 244
269 272 271 270 273 276 277 279 283 284 282 284 288 291 294 297 301 304 307 310 312 312 313 314 315 313 301 249 271 272 272 243 233 233 239 233 240 276 293 266 270 346 304 290 282 245 227
279 280 285 285 284 283 283 285 284 282 284 286 286 287 290 292 295 297 300 303 305 307 307 308 308 302 276 273 276 277 273 253 240 237 236 247 247 247 316 270 314 290 304 277 254 236 236
286 291 291 291 289 289 289 289 290 292 289 286 285 286 287 289 290 291 294 298 299 300 300 301 299 288 263 271 265 259 261 248 240 238 240 250 251 248 237 306 276 233 240 281 268 206 162
293 295 297 299 301 302 299 297 296 296 294 294 294 294 293 291 290 289 289 293 295 297 296 290 283 255 258 262 254 254 246 239 238 240 242 245 225 230 177 215 284 226 250 236 273 179 134
289 295 300 303 305 306 308 310 310 303 300 299 300 302 301 299 299 294 290 294 294 294 287 271 239 241 242 240 253 255 237 228 222 220 226 208 204 223 197 198 230 255 247 283 278 200 198
285 289 291 296 302 306 308 310 310 310 307 303 303 307 307 306 307 306 307 310 310 283 234 220 224 209 229 240 250 249 229 211 207 197 201 186 182 218 215 216 234 254 264 261 271 265 188
277 283 286 289 292 296 301 305 306 308 309 311 316 317 315 318 318 317 308 321 279 286 298 258 253 253 251 257 247 243 219 185 183 213 209 209 219 235 258 261 259 276 276 271 275 286 179
275 277 282 285 286 288 292 296 300 302 306 308 313 317 321 328 330 321 315 289 277 280 259 259 255 239 241 242 238 240 211 198 193 210 212 227 205 218 225 241 261 238 243 262 265 282 217
274 273 269 278 281 286 287 286 288 294 296 299 305 314 319 331 331 336 326 328 296 282 270 223 206 215 219 208 260 213 198 206 229 222 216 253 239 245 249 256 228 268 239 263 271 270 243
277 275 268 271 271 276 277 282 282 282 284 288 295 304 309 320 321 323 309 306 273 297 280 308 152 192 186 192 121 202 202 206 243 204 181 219 176 197 232 235 187 258 72 296 286 269 312
271 277 274 273 273 273 271 271 271 279 274 274 279 287 289 298 307 318 327 282 177 246 245 214 148 180 169 206 214 111 165 195 303 286 243 256 124 225 217 88 118 128 305 247 249 231 256
270 270 281 284 282 280 277 278 274 266 272 271 268 272 272 275 267 291 321 158 245 228 192 184 207 180 215 181 192 191 173 187 192 173 220 225 233 151 148 154 180 174 158 295 301 269 264
276 276 277 279 283 285 285 283 279 272 271 273 274 269 266 265 263 265 199 339 228 213 217 101 187 174 209 180 222 192 214 235 223 235 294 246 270 176 182 212 176 180 176 174 225 258 278
275 274 275 276 275 275 276 279 279 281 281 277 269 273 277 257 251 244 135 193 241 284 274 282 294 259 218 216 232 170 217 238 213 188 201 196 251 45 160 197 162 182 196 211 254 43 313
276 276 275 275 276 274 270 270 272 276 279 283 277 272 274 277 256 218 126 222 246 271 322 301 263 277 271 234 199 188 208 207 229 190 217 247 261 182 154 74 278 189 262 119 231 228 240
278 277 275 277 280 279 276 274 272 271 270 265 278 234 249 257 217 178 204 224 249 248 243 258 274 284 287 290 291 262 243 249 278 242 197 266 231 253 122 200 186 167 233 226 237 187 222
274 294 287 288 289 282 279 284 282 274 272 271 260 244 232 205 162 195 224 212 236 255 252 248 200 233 258 294 293 285 289 285 358 189 170 206 203 258 241 225 261 232 215 203 222 240 236
305 302 302 306 317 310 301 284 287 298 299 249 239 248 234 202 227 222 258 235 237 262 248 228 229 212 234 254 257 253 269 274 303 34 54 354 302 268 280 296 359 229 240 250 253 252 247
295 301 307 307 313 317 322 314 290 276 270 247 260 248 186 211 222 233 236 237 244 242 253 252 258 260 248 252 241 248 245 262 256 219 190 67 283 272 259 261 288 284 258 241 240 254 258
285 290 292 291 293 301 310 315 318 295 255 262 225 237 217 201 247 245 240 202 242 249 238 243 224 229 236 246 252 246 243 256 260 265 238 170 230 224 239 245 260 262 260 273 273 257 252
283 288 287 279 280 287 303 303 301 297 290 248 249 278 329 277 263 251 238 252 252 258 249 242 235 241 235 236 237 252 225 236 243 276 206 189 230 216 236 241 251 260 265 260 252 256 255
281 284 285 282 283 287 285 285 290 278 275 262 252 260 279 262 264 268 251 265 264 271 272 278 280 275 269 257 250 246 252 262 267 233 212 199 202 208 244 237 244 250 244 250 256 251 244
283 281 282 281 280 283 281 274 273 271 258 261 262 283 250 267 265 261 277 284 305 307 287 294 307 298 301 303 306 301 282 270 261 251 224 228 232 238 252 249 231 227 229 233 243 248 250
275 279 278 279 281 280 280 276 277 265 254 257 263 272 255 265 263 269 278 285 304 298 287 281 288 279 296 307 288 280 268 252 244 234 233 228 235 248 244 241 257 226 218 223 230 241 245
272 271 275 272 273 277 277 276 274 274 263 258 259 263 252 278 242 268 291 300 298 298 296 283 291 306 304 273 250 259 257 260 251 268 228 234 232 235 241 249 252 239 236 245 257 261 241
267 270 276 277 276 269 267 265 269 273 272 261 260 258 250 256 268 257 249 268 287 285 282 297 333 329 314 263 266 267 269 269 249 261 239 226 230 241 239 245 251 238 270 291 246 263 268
270 268 272 271 273 277 275 267 266 270 271 268 264 257 250 253 264 253 248 264 262 262 275 335 341 260 272 255 268 276 279 305 304 288 273 269 276 256 260 267 267 4 295 247 330 354 0
271 268 266 269 274 277 274 268 265 262 263 264 264 262 259 247 252 241 242 245 244 252 265 262 251 303 249 287 308 333 312 307 297 281 338 273 351 307 311 328 319 336 331 316 306 330 340